Time,TemperatureF,DewpointF,PressureIn,WindDirection,WindDirectionDegrees,WindSpeedMPH,WindSpeedGustMPH,Humidity,HourlyPrecipIn,Conditions,Clouds,dailyrainin,SoftwareType,DateUTC
2013-01-25 00:06:00,-999.0,-99.9,30.44,NE,53,7.0,18.0,-999,0.00,,,0.00,weatherlink.com 1.10,2013-01-25 05:06:00,
2013-01-25 00:21:00,-999.0,-99.9,30.45,ENE,65,4.0,15.0,-999,0.00,,,0.00,weatherlink.com 1.10,2013-01-25 05:21:00,
2013-01-25 00:36:00,-999.0,-99.9,30.44,NNE,33,6.0,12.0,-999,0.00,,,0.00,weatherlink.com 1.10,2013-01-25 05:36:00,
2013-01-25 00:51:00,-999.0,-99.9,30.44,NE,53,0.0,15.0,-999,0.00,,,0.00,weatherlink.com 1.10,2013-01-25 05:51:00,
2013-01-25 01:06:00,-999.0,-99.9,30.45,NNE,26,14.0,16.0,-999,0.00,,,0.00,weatherlink.com 1.10,2013-01-25 06:06:00,
2013-01-25 01:21:00,-999.0,-99.9,30.45,NE,44,5.0,17.0,-999,0.00,,,0.00,weatherlink.com 1.10,2013-01-25 06:21:00,
2013-01-25 01:36:00,-999.0,-99.9,30.45,NNE,19,10.0,15.0,-999,0.00,,,0.00,weatherlink.com 1.10,2013-01-25 06:36:00,
2013-01-25 01:51:00,-999.0,-99.9,30.45,NNE,22,12.0,17.0,-999,0.00,,,0.00,weatherlink.com 1.10,2013-01-25 06:51:00,
2013-01-25 02:06:00,-999.0,-99.9,30.45,NNE,31,18.0,18.0,-999,0.00,,,0.00,weatherlink.com 1.10,2013-01-25 07:06:00,
2013-01-25 02:21:00,-999.0,-99.9,30.45,NNE,21,11.0,21.0,-999,0.00,,,0.00,weatherlink.com 1.10,2013-01-25 07:21:00,
2013-01-25 02:37:00,-999.0,-99.9,30.44,NNE,29,10.0,19.0,-999,0.00,,,0.00,weatherlink.com 1.10,2013-01-25 07:37:00,
2013-01-25 02:52:00,-999.0,-99.9,30.44,NE,35,9.0,16.0,-999,0.00,,,0.00,weatherlink.com 1.10,2013-01-25 07:52:00,
2013-01-25 03:07:00,-999.0,-99.9,30.44,NNE,27,7.0,17.0,-999,0.00,,,0.00,weatherlink.com 1.10,2013-01-25 08:07:00,
2013-01-25 03:22:00,-999.0,-99.9,30.45,NNE,23,12.0,17.0,-999,0.00,,,0.00,weatherlink.com 1.10,2013-01-25 08:22:00,
2013-01-25 03:37:00,-999.0,-99.9,30.44,NNE,22,8.0,17.0,-999,0.00,,,0.00,weatherlink.com 1.10,2013-01-25 08:37:00,
2013-01-25 03:52:00,-999.0,-99.9,30.45,North,5,9.0,18.0,-999,0.00,,,0.00,weatherlink.com 1.10,2013-01-25 08:52:00,
2013-01-25 04:37:00,-999.0,-99.9,30.45,NNE,15,7.0,16.0,-999,0.00,,,0.00,weatherlink.com 1.10,2013-01-25 09:37:00,
2013-01-25 04:52:00,-999.0,-99.9,30.44,North,360,6.0,15.0,-999,0.00,,,0.00,weatherlink.com 1.10,2013-01-25 09:52:00,
2013-01-25 05:07:00,-999.0,-99.9,30.43,North,5,11.0,16.0,-999,0.00,,,0.00,weatherlink.com 1.10,2013-01-25 10:07:00,
2013-01-25 05:22:00,-999.0,-99.9,30.43,North,10,13.0,16.0,-999,0.00,,,0.00,weatherlink.com 1.10,2013-01-25 10:22:00,
2013-01-25 05:37:00,-999.0,-99.9,30.42,NNE,28,4.0,15.0,-999,0.00,,,0.00,weatherlink.com 1.10,2013-01-25 10:37:00,
2013-01-25 05:52:00,-999.0,-99.9,30.41,NE,34,13.0,14.0,-999,0.00,,,0.00,weatherlink.com 1.10,2013-01-25 10:52:00,
2013-01-25 06:08:00,-999.0,-99.9,30.40,NNE,24,7.0,13.0,-999,0.00,,,0.00,weatherlink.com 1.10,2013-01-25 11:08:00,
2013-01-25 06:23:00,-999.0,-99.9,30.40,NNE,27,10.0,18.0,-999,0.00,,,0.00,weatherlink.com 1.10,2013-01-25 11:23:00,
2013-01-25 06:38:00,-999.0,-99.9,30.41,NNE,14,11.0,18.0,-999,0.00,,,0.00,weatherlink.com 1.10,2013-01-25 11:38:00,
2013-01-25 06:53:00,-999.0,-99.9,30.41,North,350,10.0,14.0,-999,0.00,,,0.00,weatherlink.com 1.10,2013-01-25 11:53:00,
2013-01-25 07:08:00,-999.0,-99.9,30.42,North,5,11.0,13.0,-999,0.00,,,0.00,weatherlink.com 1.10,2013-01-25 12:08:00,
2013-01-25 07:23:00,-999.0,-99.9,30.41,North,5,6.0,11.0,-999,0.00,,,0.00,weatherlink.com 1.10,2013-01-25 12:23:00,
2013-01-25 07:38:00,-999.0,-99.9,30.41,NE,34,7.0,11.0,-999,0.00,,,0.00,weatherlink.com 1.10,2013-01-25 12:38:00,
2013-01-25 07:53:00,-999.0,-99.9,30.41,North,9,8.0,14.0,-999,0.00,,,0.00,weatherlink.com 1.10,2013-01-25 12:53:00,
2013-01-25 08:08:00,-999.0,-99.9,30.40,NNE,22,8.0,16.0,-999,0.00,,,0.00,weatherlink.com 1.10,2013-01-25 13:08:00,
2013-01-25 08:23:00,-999.0,-99.9,30.39,NE,50,6.0,14.0,-999,0.00,,,0.00,weatherlink.com 1.10,2013-01-25 13:23:00,
2013-01-25 08:38:00,-999.0,-99.9,30.38,NE,36,5.0,12.0,-999,0.00,,,0.00,weatherlink.com 1.10,2013-01-25 13:38:00,
2013-01-25 08:53:00,-999.0,-99.9,30.40,NNE,16,7.0,15.0,-999,0.00,,,0.00,weatherlink.com 1.10,2013-01-25 13:53:00,
2013-01-25 09:08:00,-999.0,-99.9,30.38,NNE,28,6.0,11.0,-999,0.00,,,0.00,weatherlink.com 1.10,2013-01-25 14:08:00,
2013-01-25 09:24:00,-999.0,-99.9,30.39,NNE,21,8.0,15.0,-999,0.00,,,0.00,weatherlink.com 1.10,2013-01-25 14:24:00,
2013-01-25 09:39:00,-999.0,-99.9,30.40,NNE,13,7.0,17.0,-999,0.00,,,0.00,weatherlink.com 1.10,2013-01-25 14:39:00,
2013-01-25 09:54:00,-999.0,-99.9,30.39,NNE,24,5.0,15.0,-999,0.00,,,0.00,weatherlink.com 1.10,2013-01-25 14:54:00,
2013-01-25 10:09:00,-999.0,-99.9,30.40,NNE,28,5.0,13.0,-999,0.00,,,0.00,weatherlink.com 1.10,2013-01-25 15:09:00,
2013-01-25 10:24:00,-999.0,-99.9,30.40,NNE,28,0.0,13.0,-999,0.00,,,0.00,weatherlink.com 1.10,2013-01-25 15:24:00,
2013-01-25 10:39:00,-999.0,-99.9,30.38,NNE,33,1.0,8.0,-999,0.00,,,0.00,weatherlink.com 1.10,2013-01-25 15:39:00,
2013-01-25 10:54:00,-999.0,-99.9,30.38,NE,40,0.0,6.0,-999,0.00,,,0.00,weatherlink.com 1.10,2013-01-25 15:54:00,
2013-01-25 11:09:00,-999.0,-99.9,30.36,East,91,5.0,11.0,-999,0.00,,,0.00,weatherlink.com 1.10,2013-01-25 16:09:00,
2013-01-25 11:24:00,-999.0,-99.9,30.34,East,98,9.0,13.0,-999,0.00,,,0.00,weatherlink.com 1.10,2013-01-25 16:24:00,
2013-01-25 11:39:00,-999.0,-99.9,30.32,East,86,8.0,12.0,-999,0.00,,,0.00,weatherlink.com 1.10,2013-01-25 16:39:00,
2013-01-25 11:54:00,-999.0,-99.9,30.33,NE,53,3.0,13.0,-999,0.00,,,0.00,weatherlink.com 1.10,2013-01-25 16:54:00,
2013-01-25 12:09:00,-999.0,-99.9,30.30,East,98,11.0,11.0,-999,0.00,,,0.00,weatherlink.com 1.10,2013-01-25 17:09:00,
2013-01-25 12:24:00,-999.0,-99.9,30.29,East,86,5.0,13.0,-999,0.00,,,0.00,weatherlink.com 1.10,2013-01-25 17:24:00,
2013-01-25 12:39:00,-999.0,-99.9,30.28,East,81,2.0,10.0,-999,0.00,,,0.00,weatherlink.com 1.10,2013-01-25 17:39:00,
2013-01-25 13:10:00,-999.0,-99.9,30.25,East,89,6.0,7.0,-999,0.00,,,0.00,weatherlink.com 1.10,2013-01-25 18:10:00,
2013-01-25 13:25:00,-999.0,-99.9,30.25,East,80,0.0,9.0,-999,0.00,,,0.00,weatherlink.com 1.10,2013-01-25 18:25:00,
2013-01-25 13:40:00,-999.0,-99.9,30.24,ENE,75,0.0,0.0,-999,0.00,,,0.00,weatherlink.com 1.10,2013-01-25 18:40:00,
2013-01-25 13:55:00,-999.0,-99.9,30.23,ENE,75,0.0,3.0,-999,0.00,,,0.00,weatherlink.com 1.10,2013-01-25 18:55:00,
2013-01-25 14:10:00,-999.0,-99.9,30.22,ENE,75,0.0,4.0,-999,0.00,,,0.00,weatherlink.com 1.10,2013-01-25 19:10:00,
2013-01-25 14:25:00,-999.0,-99.9,30.22,ENE,75,0.0,0.0,-999,0.00,,,0.00,weatherlink.com 1.10,2013-01-25 19:25:00,
2013-01-25 14:40:00,-999.0,-99.9,30.21,ENE,75,0.0,0.0,-999,0.00,,,0.00,weatherlink.com 1.10,2013-01-25 19:40:00,
2013-01-25 14:55:00,-999.0,-99.9,30.20,ENE,75,0.0,5.0,-999,0.00,,,0.00,weatherlink.com 1.10,2013-01-25 19:55:00,
2013-01-25 15:10:00,-999.0,-99.9,30.20,ENE,75,0.0,3.0,-999,0.00,,,0.00,weatherlink.com 1.10,2013-01-25 20:10:00,
2013-01-25 15:25:00,-999.0,-99.9,30.21,NE,55,5.0,9.0,-999,0.00,,,0.00,weatherlink.com 1.10,2013-01-25 20:25:00,
2013-01-25 15:40:00,-999.0,-99.9,30.21,NNE,32,0.0,8.0,-999,0.00,,,0.00,weatherlink.com 1.10,2013-01-25 20:40:00,
2013-01-25 15:55:00,-999.0,-99.9,30.19,NNE,32,0.0,6.0,-999,0.00,,,0.00,weatherlink.com 1.10,2013-01-25 20:55:00,
2013-01-25 16:11:00,-999.0,-99.9,30.19,NNE,32,0.0,0.0,-999,0.00,,,0.00,weatherlink.com 1.10,2013-01-25 21:11:00,
2013-01-25 16:26:00,-999.0,-99.9,30.18,NNE,32,0.0,0.0,-999,0.00,,,0.00,weatherlink.com 1.10,2013-01-25 21:26:00,
2013-01-25 16:41:00,-999.0,-99.9,30.19,NNE,32,0.0,1.0,-999,0.00,,,0.00,weatherlink.com 1.10,2013-01-25 21:41:00,
2013-01-25 16:56:00,-999.0,-99.9,30.18,NNE,32,0.0,0.0,-999,0.00,,,0.00,weatherlink.com 1.10,2013-01-25 21:56:00,
2013-01-25 17:11:00,-999.0,-99.9,30.18,NNE,32,0.0,4.0,-999,0.00,,,0.00,weatherlink.com 1.10,2013-01-25 22:11:00,
2013-01-25 17:26:00,-999.0,-99.9,30.18,NNW,347,6.0,8.0,-999,0.00,,,0.00,weatherlink.com 1.10,2013-01-25 22:26:00,
2013-01-25 17:41:00,-999.0,-99.9,30.18,NNW,344,0.0,0.0,-999,0.00,,,0.00,weatherlink.com 1.10,2013-01-25 22:41:00,
2013-01-25 17:56:00,-999.0,-99.9,30.18,NNW,344,0.0,6.0,-999,0.00,,,0.00,weatherlink.com 1.10,2013-01-25 22:56:00,
2013-01-25 18:11:00,-999.0,-99.9,30.18,NNW,342,5.0,7.0,-999,0.00,,,0.00,weatherlink.com 1.10,2013-01-25 23:11:00,
2013-01-25 18:26:00,-999.0,-99.9,30.18,NNE,14,5.0,10.0,-999,0.00,,,0.00,weatherlink.com 1.10,2013-01-25 23:26:00,
2013-01-25 18:41:00,-999.0,-99.9,30.17,North,5,0.0,7.0,-999,0.00,,,0.00,weatherlink.com 1.10,2013-01-25 23:41:00,
2013-01-25 18:56:00,-999.0,-99.9,30.18,North,5,1.0,8.0,-999,0.00,,,0.00,weatherlink.com 1.10,2013-01-25 23:56:00,
2013-01-25 19:11:00,-999.0,-99.9,30.18,North,5,0.0,4.0,-999,0.00,,,0.00,weatherlink.com 1.10,2013-01-26 00:11:00,
2013-01-25 19:27:00,-999.0,-99.9,30.18,North,5,0.0,7.0,-999,0.00,,,0.00,weatherlink.com 1.10,2013-01-26 00:27:00,
2013-01-25 19:42:00,-999.0,-99.9,30.18,North,5,0.0,6.0,-999,0.00,,,0.00,weatherlink.com 1.10,2013-01-26 00:42:00,
2013-01-25 19:57:00,-999.0,-99.9,30.18,North,355,0.0,6.0,-999,0.00,,,0.00,weatherlink.com 1.10,2013-01-26 00:57:00,
2013-01-25 20:12:00,-999.0,-99.9,30.17,North,355,0.0,0.0,-999,0.00,,,0.00,weatherlink.com 1.10,2013-01-26 01:12:00,
2013-01-25 20:27:00,-999.0,-99.9,30.17,North,355,0.0,5.0,-999,0.00,,,0.00,weatherlink.com 1.10,2013-01-26 01:27:00,
2013-01-25 20:42:00,-999.0,-99.9,30.16,North,355,0.0,0.0,-999,0.00,,,0.00,weatherlink.com 1.10,2013-01-26 01:42:00,
2013-01-25 20:57:00,-999.0,-99.9,30.16,North,355,0.0,2.0,-999,0.00,,,0.00,weatherlink.com 1.10,2013-01-26 01:57:00,
2013-01-25 21:12:00,-999.0,-99.9,30.17,North,355,0.0,0.0,-999,0.00,,,0.00,weatherlink.com 1.10,2013-01-26 02:12:00,
2013-01-25 21:27:00,-999.0,-99.9,30.17,North,355,5.0,5.0,-999,0.00,,,0.00,weatherlink.com 1.10,2013-01-26 02:27:00,
2013-01-25 21:42:00,-999.0,-99.9,30.17,North,355,0.0,0.0,-999,0.00,,,0.00,weatherlink.com 1.10,2013-01-26 02:42:00,
2013-01-25 21:57:00,-999.0,-99.9,30.17,North,355,0.0,0.0,-999,0.00,,,0.00,weatherlink.com 1.10,2013-01-26 02:57:00,
2013-01-25 22:12:00,-999.0,-99.9,30.17,North,355,0.0,1.0,-999,0.00,,,0.00,weatherlink.com 1.10,2013-01-26 03:12:00,
2013-01-25 22:27:00,-999.0,-99.9,30.16,North,355,0.0,0.0,-999,0.00,,,0.00,weatherlink.com 1.10,2013-01-26 03:27:00,
2013-01-25 22:42:00,-999.0,-99.9,30.16,North,355,0.0,0.0,-999,0.00,,,0.00,weatherlink.com 1.10,2013-01-26 03:42:00,
2013-01-25 22:58:00,-999.0,-99.9,30.16,North,355,0.0,0.0,-999,0.00,,,0.00,weatherlink.com 1.10,2013-01-26 03:58:00,
2013-01-25 23:13:00,-999.0,-99.9,30.16,North,355,0.0,0.0,-999,0.00,,,0.00,weatherlink.com 1.10,2013-01-26 04:13:00,
2013-01-25 23:28:00,-999.0,-99.9,30.16,North,355,0.0,0.0,-999,0.00,,,0.00,weatherlink.com 1.10,2013-01-26 04:28:00,
2013-01-25 23:43:00,-999.0,-99.9,30.15,North,355,1.0,5.0,-999,0.00,,,0.00,weatherlink.com 1.10,2013-01-26 04:43:00,
2013-01-25 23:58:00,-999.0,-99.9,30.15,North,355,0.0,6.0,-999,0.00,,,0.00,weatherlink.com 1.10,2013-01-26 04:58:00,